Regional Weather Roundup
Issued by NWS

Home | Current Version | Previous Version | Text Only | Print | Product List | Glossary On
Versions: 1 2 3 4 5 6 7 8 9 10 11 12 13 14 15 16 17 18 19 20 21 22 23 24 25 26 27 28 29 30 31 32 33 34 35 36 37 38 39 40 41 42 43 44 45 46 47 48 49 50
000
ASUS45 KABQ 250510
RWRNM
NEW MEXICO REGIONAL WEATHER ROUNDUP
NATIONAL WEATHER SERVICE ALBUQUERQUE NM
1100 PM MDT MON JUL 24 2017

NOTE: "FAIR" MEANS FEW OR NO CLOUDS BELOW 12,000 FEET AGL WITH NO
       SIGNIFICANT WEATHER OR OBSTRUCTIONS TO VISION.

      THIS PRODUCT IS RELEASED AS TWO VERSIONS.  ONE VERSION NEAR
      THE TOP OF THE HOUR CONTAINING PRELIMINARY DATA FROM ALBUQUERQUE
      AND OTHER STATIONS.  A FINAL VERSION WITH ADDITIONAL DATA IS
      ISSUED ABOUT 10 MINUTES AFTER THE HOUR.

NMZ501-503-504-510>518-250600-
NORTHWEST PLATEAU/NORTHCENTRAL MOUNTAINS

CITY           SKY/WX    TMP DP  RH WIND       PRES   REMARKS
FARMINGTON     HVY RAIN  64  62  93 NE16      30.18S FOG
LOS ALAMOS     CLOUDY    70  54  56 S15       30.32R
SANTA FE       MOCLDY    70  63  78 NE5       30.25R
TAOS           CLOUDY    66  50  55 CALM      30.32R
ANGEL FIRE     CLOUDY    56  54  93 CALM      30.42S

$$
NMZ402-403-502-505>509-250600-
WESTCENTRAL MOUNTAINS/SOUTHWEST MOUNTAINS

CITY           SKY/WX    TMP DP  RH WIND       PRES   REMARKS
GALLUP         FAIR      62  61  96 CALM      30.23R
GRANTS         FAIR      62  60  90 CALM      30.26S
SILVER CITY    FAIR      68  64  86 NW5       30.20R

$$
NMZ407-409-411-412-250600-
SOUTHERN DESERTS

CITY           SKY/WX    TMP DP  RH WIND       PRES   REMARKS
DEMING         FAIR      74  66  76 S5        30.12R
LAS CRUCES     FAIR      75  66  74 SE6       30.14R
HOLLOMAN AFB   CLOUDY    82  61  48 S9        30.10R
ALAMOGORDO     FAIR      82  57  42 S14       30.09S
T OR C         FAIR      75  57  53 NW5       30.13R

$$
NMZ519>523-250600-
CENTRAL VALLEYS/CENTRAL HIGHLANDS

CITY           SKY/WX    TMP DP  RH WIND       PRES   REMARKS
ALBUQUERQUE    FAIR      79  56  45 W8        30.16R
DOUBLE EAGLE   FAIR      74  55  51 CALM      30.20S
MORIARTY ARPT  CLOUDY    72  60  65 SE6       30.25S
CLINES CORNERS FAIR      68  53  58 S7        30.31R
BELEN          FAIR      76  55  46 SW5       30.15S
SOCORRO        FAIR      75  60  59 SE5       30.12S

$$
NMZ524>526-539-540-250600-
SOUTHCENTRAL MOUNTAINS

CITY           SKY/WX    TMP DP  RH WIND       PRES   REMARKS
RUIDOSO        FAIR      63  57  82 SW8       30.31S

$$
NMZ527>531-250600-
NORTHEAST HIGHLANDS/NORTHEAST PLAINS

CITY           SKY/WX    TMP DP  RH WIND       PRES   REMARKS
RATON          FAIR      68  55  63 SW8       30.24R
CLAYTON        FAIR      68  60  75 S9        30.15R

$$
NMZ532>537-250600-
EASTCENTRAL PLAINS

CITY           SKY/WX    TMP DP  RH WIND       PRES   REMARKS
SANTA ROSA     FAIR      77  56  48 SE10      30.13R
TUCUMCARI      FAIR      79  62  56 S17       30.07R
CANNON AFB     MOCLDY    74  65  73 SE12      30.14R
CLOVIS AIRPORT FAIR      72  64  76 S12       30.14R

$$
NMZ028-029-538-250600-
SOUTHEAST PLAINS

CITY           SKY/WX    TMP DP  RH WIND       PRES   REMARKS
ROSWELL        MOCLDY    84  58  40 S10       30.05R
ARTESIA        FAIR      84  63  48 S10       30.05S
CARLSBAD       FAIR      81  66  60 S5        30.03R
HOBBS          FAIR      81  59  47 SE12      30.10S


$$




USA.gov is the U.S. government's official web portal to all federal, state and local government web resources and services.